Time,TemperatureF,DewpointF,PressureIn,WindDirection,WindDirectionDegrees,WindSpeedMPH,WindSpeedGustMPH,Humidity,HourlyPrecipIn,Conditions,Clouds,dailyrainin,SoftwareType,DateUTC
2013-03-01 00:02:00,29.0,29.0,-100.00,NNE,25,7.0,10.0,99,0.01,,,-99.99,,2013-03-01 06:02:00,
2013-03-01 00:11:00,29.0,29.0,-100.00,NNE,25,7.0,10.0,99,0.01,,,-99.99,,2013-03-01 06:11:00,
2013-03-01 00:21:00,29.0,29.0,-100.00,NNE,15,7.0,11.0,99,0.00,,,-99.99,,2013-03-01 06:21:00,
2013-03-01 00:32:00,29.0,29.0,-100.00,NNE,15,6.0,9.0,99,0.00,,,-99.99,,2013-03-01 06:32:00,
2013-03-01 00:42:00,29.0,29.0,-100.00,NNE,15,6.0,9.0,99,0.00,,,-99.99,,2013-03-01 06:42:00,
2013-03-01 00:53:00,29.0,29.0,-100.00,NNE,30,7.0,10.0,99,0.00,,,-99.99,,2013-03-01 06:53:00,
2013-03-01 01:02:00,29.0,29.0,-100.00,NNE,30,7.0,10.0,99,0.00,,,-99.99,,2013-03-01 07:02:00,
2013-03-01 01:11:00,29.0,29.0,-100.00,NE,55,6.0,10.0,99,0.01,,,-99.99,,2013-03-01 07:11:00,
2013-03-01 01:22:00,28.0,28.0,-100.00,ENE,65,12.0,16.0,99,0.01,,,-99.99,,2013-03-01 07:22:00,
2013-03-01 01:32:00,27.0,27.0,-100.00,ENE,65,12.0,16.0,98,0.01,,,-99.99,,2013-03-01 07:32:00,
2013-03-01 01:42:00,27.0,27.0,-100.00,ENE,65,12.0,15.0,97,0.01,,,-99.99,,2013-03-01 07:42:00,
2013-03-01 01:52:00,27.0,26.0,-100.00,ENE,60,10.0,14.0,96,0.01,,,-99.99,,2013-03-01 07:52:00,
2013-03-01 02:02:00,27.0,26.0,-100.00,ENE,60,10.0,14.0,96,0.01,,,-99.99,,2013-03-01 08:02:00,
2013-03-01 02:11:00,27.0,26.0,-100.00,ENE,60,10.0,14.0,96,0.01,,,-99.99,,2013-03-01 08:11:00,
2013-03-01 02:22:00,27.0,26.0,-100.00,ENE,65,7.0,10.0,96,0.00,,,-99.99,,2013-03-01 08:22:00,
2013-03-01 02:32:00,27.0,26.0,-100.00,NE,55,7.0,11.0,96,0.00,,,-99.99,,2013-03-01 08:32:00,
2013-03-01 02:43:00,27.0,26.0,-100.00,NE,50,7.0,11.0,96,0.00,,,-99.99,,2013-03-01 08:43:00,
2013-03-01 02:53:00,26.0,25.0,-100.00,ENE,60,9.0,16.0,94,0.00,,,-99.99,,2013-03-01 08:53:00,
2013-03-01 03:02:00,26.0,25.0,-100.00,NE,50,9.0,15.0,94,0.00,,,-99.99,,2013-03-01 09:02:00,
2013-03-01 03:12:00,26.0,24.0,-100.00,NE,50,11.0,15.0,93,0.00,,,-99.99,,2013-03-01 09:12:00,
2013-03-01 03:22:00,26.0,23.0,-100.00,NE,50,9.0,15.0,88,0.00,,,-99.99,,2013-03-01 09:22:00,
2013-03-01 03:32:00,26.0,23.0,-100.00,NE,50,9.0,15.0,88,0.00,,,-99.99,,2013-03-01 09:32:00,
2013-03-01 03:42:00,26.0,23.0,-100.00,NE,50,9.0,15.0,88,0.00,,,-99.99,,2013-03-01 09:42:00,
2013-03-01 03:52:00,26.0,21.0,-100.00,NE,45,7.0,12.0,80,0.00,,,-99.99,,2013-03-01 09:52:00,
2013-03-01 04:02:00,26.0,21.0,-100.00,NE,45,7.0,12.0,80,0.00,,,-99.99,,2013-03-01 10:02:00,
2013-03-01 04:11:00,26.0,21.0,-100.00,NE,45,7.0,12.0,80,0.00,,,-99.99,,2013-03-01 10:11:00,
2013-03-01 04:22:00,26.0,21.0,-100.00,NE,45,7.0,12.0,80,0.00,,,-99.99,,2013-03-01 10:22:00,
2013-03-01 04:32:00,26.0,19.0,-100.00,NNE,15,6.0,10.0,76,0.00,,,-99.99,,2013-03-01 10:32:00,
2013-03-01 04:42:00,26.0,19.0,-100.00,NNE,15,6.0,10.0,76,0.00,,,-99.99,,2013-03-01 10:42:00,
2013-03-01 04:53:00,26.0,19.0,-100.00,NNE,15,6.0,10.0,76,0.00,,,-99.99,,2013-03-01 10:53:00,
2013-03-01 05:01:00,25.0,19.0,-100.00,NNE,30,6.0,9.0,77,0.00,,,-99.99,,2013-03-01 11:01:00,
2013-03-01 05:11:00,25.0,19.0,-100.00,NNE,30,6.0,9.0,77,0.00,,,-99.99,,2013-03-01 11:11:00,
2013-03-01 05:22:00,25.0,19.0,-100.00,NNE,25,6.0,10.0,77,0.00,,,-99.99,,2013-03-01 11:22:00,
2013-03-01 05:32:00,25.0,19.0,-100.00,NE,35,10.0,14.0,76,0.00,,,-99.99,,2013-03-01 11:32:00,
2013-03-01 05:42:00,25.0,19.0,-100.00,NE,35,10.0,14.0,76,0.00,,,-99.99,,2013-03-01 11:42:00,
2013-03-01 05:52:00,25.0,19.0,-100.00,NE,35,10.0,14.0,76,0.00,,,-99.99,,2013-03-01 11:52:00,
2013-03-01 06:01:00,25.0,19.0,-100.00,NE,35,10.0,14.0,76,0.00,,,-99.99,,2013-03-01 12:01:00,
2013-03-01 06:11:00,25.0,18.0,-100.00,NNE,20,12.0,19.0,75,0.00,,,-99.99,,2013-03-01 12:11:00,
2013-03-01 06:21:00,25.0,18.0,-100.00,NNE,20,12.0,19.0,75,0.00,,,-99.99,,2013-03-01 12:21:00,
2013-03-01 06:32:00,25.0,19.0,-100.00,NNE,20,11.0,18.0,79,0.00,,,-99.99,,2013-03-01 12:32:00,
2013-03-01 06:42:00,25.0,19.0,-100.00,NNE,20,11.0,18.0,79,0.00,,,-99.99,,2013-03-01 12:42:00,
2013-03-01 06:52:00,25.0,19.0,-100.00,NNE,20,13.0,18.0,80,0.00,,,-99.99,,2013-03-01 12:52:00,
2013-03-01 07:01:00,25.0,19.0,-100.00,NNE,20,13.0,18.0,80,0.00,,,-99.99,,2013-03-01 13:01:00,
2013-03-01 07:11:00,25.0,20.0,-100.00,NNE,30,13.0,19.0,80,0.00,,,-99.99,,2013-03-01 13:11:00,
2013-03-01 07:21:00,25.0,20.0,-100.00,NNE,20,11.0,21.0,80,0.00,,,-99.99,,2013-03-01 13:21:00,
2013-03-01 07:32:00,25.0,20.0,-100.00,NNE,20,14.0,20.0,81,0.00,,,-99.99,,2013-03-01 13:32:00,
2013-03-01 07:41:00,25.0,20.0,-100.00,NNE,25,14.0,17.0,82,0.00,,,-99.99,,2013-03-01 13:41:00,
2013-03-01 07:51:00,25.0,20.0,-100.00,NNE,25,14.0,17.0,82,0.00,,,-99.99,,2013-03-01 13:51:00,
2013-03-01 08:01:00,25.0,20.0,-100.00,NNE,25,14.0,17.0,82,0.00,,,-99.99,,2013-03-01 14:01:00,
2013-03-01 08:11:00,25.0,20.0,-100.00,NNE,25,14.0,17.0,82,0.00,,,-99.99,,2013-03-01 14:11:00,
2013-03-01 08:21:00,25.0,20.0,-100.00,NNE,20,13.0,18.0,81,0.00,,,-99.99,,2013-03-01 14:21:00,
2013-03-01 08:32:00,25.0,20.0,-100.00,NNE,20,13.0,18.0,81,0.00,,,-99.99,,2013-03-01 14:32:00,
2013-03-01 08:42:00,25.0,20.0,-100.00,NNE,20,13.0,18.0,81,0.00,,,-99.99,,2013-03-01 14:42:00,
2013-03-01 08:52:00,26.0,20.0,-100.00,NNE,20,11.0,17.0,79,0.00,,,-99.99,,2013-03-01 14:52:00,
2013-03-01 09:01:00,26.0,20.0,-100.00,NNE,20,11.0,17.0,79,0.00,,,-99.99,,2013-03-01 15:01:00,
2013-03-01 09:11:00,26.0,20.0,-100.00,NNE,20,11.0,17.0,79,0.00,,,-99.99,,2013-03-01 15:11:00,
2013-03-01 09:21:00,26.0,20.0,-100.00,NNE,25,15.0,21.0,77,0.00,,,-99.99,,2013-03-01 15:21:00,
2013-03-01 09:31:00,26.0,20.0,-100.00,NNE,25,15.0,21.0,77,0.00,,,-99.99,,2013-03-01 15:31:00,
2013-03-01 09:42:00,26.0,20.0,-100.00,NNE,25,15.0,21.0,77,0.00,,,-99.99,,2013-03-01 15:42:00,
2013-03-01 09:52:00,27.0,21.0,-100.00,NNE,15,13.0,19.0,75,0.00,,,-99.99,,2013-03-01 15:52:00,
2013-03-01 10:01:00,27.0,21.0,-100.00,NNE,15,13.0,19.0,75,0.00,,,-99.99,,2013-03-01 16:01:00,
2013-03-01 10:11:00,27.0,21.0,-100.00,NNE,15,13.0,19.0,75,0.00,,,-99.99,,2013-03-01 16:11:00,
2013-03-01 10:21:00,27.0,20.0,-100.00,NNE,15,14.0,22.0,74,0.00,,,-99.99,,2013-03-01 16:21:00,
2013-03-01 10:32:00,28.0,20.0,-100.00,NE,40,14.0,20.0,73,0.00,,,-99.99,,2013-03-01 16:32:00,
2013-03-01 10:41:00,28.0,20.0,-100.00,NNE,25,15.0,22.0,71,0.00,,,-99.99,,2013-03-01 16:41:00,
2013-03-01 10:52:00,29.0,20.0,-100.00,NNE,15,14.0,19.0,71,0.00,,,-99.99,,2013-03-01 16:52:00,
2013-03-01 11:01:00,28.0,20.0,-100.00,NNE,20,13.0,18.0,71,0.00,,,-99.99,,2013-03-01 17:01:00,
2013-03-01 11:11:00,28.0,20.0,-100.00,NNE,20,13.0,18.0,71,0.00,,,-99.99,,2013-03-01 17:11:00,
2013-03-01 11:21:00,29.0,20.0,-100.00,NNE,20,12.0,21.0,69,0.00,,,-99.99,,2013-03-01 17:21:00,
2013-03-01 11:32:00,29.0,20.0,-100.00,NNE,15,11.0,16.0,69,0.00,,,-99.99,,2013-03-01 17:32:00,
2013-03-01 11:41:00,29.0,20.0,-100.00,NNE,15,11.0,16.0,69,0.00,,,-99.99,,2013-03-01 17:41:00,
2013-03-01 11:52:00,29.0,20.0,-100.00,North,10,17.0,21.0,68,0.00,,,-99.99,,2013-03-01 17:52:00,
2013-03-01 12:01:00,29.0,20.0,-100.00,North,10,17.0,21.0,68,0.00,,,-99.99,,2013-03-01 18:01:00,
2013-03-01 12:12:00,29.0,20.0,-100.00,NNE,20,16.0,21.0,69,0.00,,,-99.99,,2013-03-01 18:12:00,
2013-03-01 12:22:00,29.0,20.0,-100.00,NNE,20,16.0,21.0,69,0.00,,,-99.99,,2013-03-01 18:22:00,
2013-03-01 12:31:00,29.0,21.0,-100.00,North,5,14.0,17.0,71,0.00,,,-99.99,,2013-03-01 18:31:00,
2013-03-01 12:42:00,29.0,21.0,-100.00,North,5,14.0,17.0,71,0.00,,,-99.99,,2013-03-01 18:42:00,
2013-03-01 12:52:00,29.0,22.0,-100.00,North,5,14.0,19.0,72,0.00,,,-99.99,,2013-03-01 18:52:00,
2013-03-01 13:01:00,29.0,22.0,-100.00,North,5,14.0,19.0,72,0.00,,,-99.99,,2013-03-01 19:01:00,
2013-03-01 13:11:00,29.0,22.0,-100.00,North,5,14.0,19.0,72,0.00,,,-99.99,,2013-03-01 19:11:00,
2013-03-01 13:21:00,29.0,22.0,-100.00,NNE,20,14.0,19.0,73,0.00,,,-99.99,,2013-03-01 19:21:00,
2013-03-01 13:32:00,29.0,22.0,-100.00,NNE,20,14.0,19.0,73,0.00,,,-99.99,,2013-03-01 19:32:00,
2013-03-01 13:42:00,29.0,22.0,-100.00,NNE,25,15.0,18.0,75,0.00,,,-99.99,,2013-03-01 19:42:00,
2013-03-01 13:51:00,29.0,22.0,-100.00,NNE,15,10.0,15.0,77,0.00,,,-99.99,,2013-03-01 19:51:00,
2013-03-01 14:01:00,29.0,22.0,-100.00,NNE,15,10.0,15.0,77,0.00,,,-99.99,,2013-03-01 20:01:00,
2013-03-01 14:11:00,28.0,22.0,-100.00,NNE,25,11.0,19.0,77,0.00,,,-99.99,,2013-03-01 20:11:00,
2013-03-01 14:21:00,28.0,22.0,-100.00,NNE,20,12.0,18.0,77,0.00,,,-99.99,,2013-03-01 20:21:00,
2013-03-01 14:31:00,29.0,23.0,-100.00,NNE,25,9.0,13.0,77,0.00,,,-99.99,,2013-03-01 20:31:00,
2013-03-01 14:41:00,29.0,23.0,-100.00,NNE,15,11.0,14.0,77,0.00,,,-99.99,,2013-03-01 20:41:00,
2013-03-01 14:52:00,29.0,22.0,-100.00,NNE,25,12.0,17.0,77,0.00,,,-99.99,,2013-03-01 20:52:00,
2013-03-01 15:01:00,28.0,22.0,-100.00,NNE,20,12.0,17.0,77,0.00,,,-99.99,,2013-03-01 21:01:00,
2013-03-01 15:11:00,29.0,22.0,-100.00,NNE,15,11.0,17.0,77,0.00,,,-99.99,,2013-03-01 21:11:00,
2013-03-01 15:21:00,29.0,22.0,-100.00,NE,35,11.0,16.0,77,0.00,,,-99.99,,2013-03-01 21:21:00,
2013-03-01 15:32:00,29.0,23.0,-100.00,NNE,25,12.0,16.0,77,0.00,,,-99.99,,2013-03-01 21:32:00,
2013-03-01 15:42:00,28.0,22.0,-100.00,NNE,25,10.0,15.0,77,0.00,,,-99.99,,2013-03-01 21:42:00,
2013-03-01 15:51:00,28.0,22.0,-100.00,NNE,30,10.0,14.0,78,0.00,,,-99.99,,2013-03-01 21:51:00,
2013-03-01 16:01:00,28.0,22.0,-100.00,NNE,30,10.0,14.0,78,0.00,,,-99.99,,2013-03-01 22:01:00,
2013-03-01 16:11:00,28.0,22.0,-100.00,NNE,15,12.0,17.0,78,0.00,,,-99.99,,2013-03-01 22:11:00,
2013-03-01 16:21:00,28.0,23.0,-100.00,NNE,30,10.0,15.0,79,0.00,,,-99.99,,2013-03-01 22:21:00,
2013-03-01 16:31:00,28.0,22.0,-100.00,NNE,20,11.0,17.0,79,0.01,,,-99.99,,2013-03-01 22:31:00,
2013-03-01 16:42:00,28.0,22.0,-100.00,NE,35,9.0,15.0,80,0.00,,,-99.99,,2013-03-01 22:42:00,
2013-03-01 16:51:00,27.0,22.0,-100.00,NNE,25,9.0,14.0,80,0.00,,,-99.99,,2013-03-01 22:51:00,
2013-03-01 17:01:00,27.0,22.0,-100.00,NNE,25,9.0,14.0,80,0.00,,,-99.99,,2013-03-01 23:01:00,
2013-03-01 17:11:00,27.0,22.0,-100.00,NNE,30,9.0,14.0,80,0.00,,,-99.99,,2013-03-01 23:11:00,
2013-03-01 17:21:00,27.0,22.0,-100.00,NNE,30,9.0,13.0,80,0.00,,,-99.99,,2013-03-01 23:21:00,
2013-03-01 17:31:00,27.0,22.0,-100.00,NNE,20,7.0,13.0,80,0.00,,,-99.99,,2013-03-01 23:31:00,
2013-03-01 17:41:00,27.0,22.0,-100.00,NNE,30,7.0,12.0,81,0.00,,,-99.99,,2013-03-01 23:41:00,
2013-03-01 17:52:00,27.0,22.0,-100.00,NNE,30,6.0,11.0,82,0.00,,,-99.99,,2013-03-01 23:52:00,
2013-03-01 18:02:00,27.0,22.0,-100.00,NNE,30,7.0,11.0,82,0.00,,,-99.99,,2013-03-02 00:02:00,
2013-03-01 18:11:00,27.0,22.0,-100.00,NNE,20,6.0,11.0,82,0.00,,,-99.99,,2013-03-02 00:11:00,
2013-03-01 18:21:00,27.0,22.0,-100.00,NNE,30,6.0,11.0,82,0.00,,,-99.99,,2013-03-02 00:21:00,
2013-03-01 18:32:00,27.0,22.0,-100.00,North,10,6.0,9.0,82,0.00,,,-99.99,,2013-03-02 00:32:00,
2013-03-01 18:42:00,27.0,22.0,-100.00,NNE,25,7.0,10.0,81,0.00,,,-99.99,,2013-03-02 00:42:00,
2013-03-01 18:52:00,27.0,22.0,-100.00,North,10,9.0,12.0,81,0.00,,,-99.99,,2013-03-02 00:52:00,
2013-03-01 19:01:00,27.0,21.0,-100.00,NNE,25,9.0,14.0,80,0.00,,,-99.99,,2013-03-02 01:01:00,
2013-03-01 19:11:00,27.0,21.0,-100.00,NNE,15,10.0,13.0,79,0.00,,,-99.99,,2013-03-02 01:11:00,
2013-03-01 19:21:00,27.0,21.0,-100.00,NNE,15,9.0,11.0,78,0.00,,,-99.99,,2013-03-02 01:21:00,
2013-03-01 19:31:00,27.0,21.0,-100.00,NNE,15,7.0,11.0,78,0.00,,,-99.99,,2013-03-02 01:31:00,
2013-03-01 19:41:00,27.0,21.0,-100.00,NNE,15,7.0,9.0,78,0.00,,,-99.99,,2013-03-02 01:41:00,
2013-03-01 19:51:00,27.0,21.0,-100.00,North,5,7.0,10.0,79,0.00,,,-99.99,,2013-03-02 01:51:00,
2013-03-01 20:01:00,27.0,21.0,-100.00,North,5,7.0,10.0,79,0.00,,,-99.99,,2013-03-02 02:01:00,
2013-03-01 20:11:00,27.0,21.0,-100.00,North,0,7.0,10.0,80,0.00,,,-99.99,,2013-03-02 02:11:00,
2013-03-01 20:21:00,27.0,22.0,-100.00,North,10,6.0,11.0,81,0.00,,,-99.99,,2013-03-02 02:21:00,
2013-03-01 20:32:00,26.0,22.0,-100.00,North,0,7.0,10.0,82,0.00,,,-99.99,,2013-03-02 02:32:00,
2013-03-01 20:41:00,26.0,21.0,-100.00,North,5,6.0,10.0,82,0.00,,,-99.99,,2013-03-02 02:41:00,
2013-03-01 20:52:00,26.0,21.0,-100.00,North,5,6.0,7.0,83,0.00,,,-99.99,,2013-03-02 02:52:00,
2013-03-01 21:01:00,25.0,21.0,-100.00,North,10,5.0,7.0,84,0.00,,,-99.99,,2013-03-02 03:01:00,
2013-03-01 21:11:00,25.0,21.0,-100.00,North,5,6.0,7.0,85,0.00,,,-99.99,,2013-03-02 03:11:00,
2013-03-01 21:21:00,24.0,21.0,-100.00,North,5,4.0,6.0,85,0.00,,,-99.99,,2013-03-02 03:21:00,
2013-03-01 21:32:00,23.0,20.0,-100.00,NE,35,2.0,4.0,87,0.00,,,-99.99,,2013-03-02 03:32:00,
2013-03-01 21:42:00,23.0,20.0,-100.00,NE,35,2.0,4.0,87,0.00,,,-99.99,,2013-03-02 03:42:00,
2013-03-01 21:52:00,23.0,20.0,-100.00,North,5,2.0,4.0,87,0.00,,,-99.99,,2013-03-02 03:52:00,
2013-03-01 22:01:00,23.0,20.0,-100.00,North,5,2.0,4.0,87,0.00,,,-99.99,,2013-03-02 04:01:00,
2013-03-01 22:11:00,21.0,18.0,-100.00,NW,320,2.0,3.0,89,0.00,,,-99.99,,2013-03-02 04:11:00,
2013-03-01 22:21:00,20.0,18.0,-100.00,NW,325,3.0,4.0,90,0.00,,,-99.99,,2013-03-02 04:21:00,
2013-03-01 22:32:00,20.0,18.0,-100.00,NNW,335,2.0,4.0,91,0.00,,,-99.99,,2013-03-02 04:32:00,
2013-03-01 22:42:00,20.0,18.0,-100.00,NNW,330,2.0,3.0,91,0.00,,,-99.99,,2013-03-02 04:42:00,
2013-03-01 22:51:00,19.0,18.0,-100.00,NW,325,3.0,4.0,93,0.00,,,-99.99,,2013-03-02 04:51:00,
2013-03-01 23:01:00,19.0,18.0,-100.00,NW,325,3.0,4.0,93,0.00,,,-99.99,,2013-03-02 05:01:00,
2013-03-01 23:12:00,19.0,17.0,-100.00,NW,320,3.0,4.0,94,0.00,,,-99.99,,2013-03-02 05:12:00,
2013-03-01 23:22:00,18.0,17.0,-100.00,NW,320,4.0,4.0,94,0.00,,,-99.99,,2013-03-02 05:22:00,
2013-03-01 23:32:00,18.0,17.0,-100.00,NW,320,4.0,4.0,94,0.00,,,-99.99,,2013-03-02 05:32:00,
2013-03-01 23:41:00,18.0,17.0,-100.00,North,350,2.0,4.0,95,0.00,,,-99.99,,2013-03-02 05:41:00,
2013-03-01 23:52:00,19.0,18.0,-100.00,North,350,2.0,3.0,96,0.00,,,-99.99,,2013-03-02 05:52:00,